Hebron, NE

3:52 AM CDT on April 23, 2017 (GMT -0500)
Hebron Municipal

Weather History for KHJH - November, 2012

Change the Weather History Date:

Wednesday, November 28, 2012

  Actual Average Record
Temperature  
Mean Temperature 34 °F -  
Max Temperature 54 °F 38 °F 65 °F (2014)
Min Temperature 13 °F 19 °F -6 °F (1976)
Degree Days  
Heating Degree Days 32    
Moisture  
Dew Point 24 °F    
Average Humidity 71    
Maximum Humidity 94    
Minimum Humidity 35    
Precipitation  
Precipitation 0.00 in - - ()
Sea Level Pressure  
Sea Level Pressure 30.24 in    
Wind  
Wind Speed 3 mph (South)    
Max Wind Speed 14 mph    
Max Gust Speed 18 mph    
Visibility 9 miles    
Events      
Averages and records for this station are not official NWS values.
T = Trace of Precipitation, MM = Missing Value Source: NWS Daily Summary

Daily Weather History Graph

Daily Weather History Graph

Search for Another Location

Airport or City:

Trip Planner

Search our weather history database for the weather conditions in past years. The results will help you decide how hot, cold, wet, or windy it might be!

Date:

Astronomy

Nov. 28, 2012 Rise Set
Actual Time 7:30 AM CST 5:05 PM CST
Civil Twilight 7:00 AM CST 5:35 PM CST
Nautical Twilight 6:27 AM CST 6:09 PM CST
Astronomical Twilight 5:54 AM CST 6:42 PM CST
Moon 5:21 PM CST (11/28) 7:29 AM CST (11/28)
Length of Visible Light 10h 34m
Length of Day
9h 35m
Full, 100% of the Moon is Illuminated
Nov 28
Full
Dec 6
Last Quarter
Dec 13
New
Dec 19
First Quarter
Dec 28
Full

Hourly Weather History & Observations

Time (CST) Temp. Windchill Dew Point Humidity Pressure Visibility Wind Dir Wind Speed Gust Speed Precip Events Conditions
12:15 AM 21.2 °F - 19.0 °F 91% 30.31 in 10.0 mi Calm Calm - N/A   Clear
12:55 AM 20.3 °F - 18.3 °F 92% 30.31 in 10.0 mi Calm Calm - N/A   Clear
1:15 AM 21.2 °F - 18.9 °F 91% 30.31 in 10.0 mi Calm Calm - N/A   Clear
1:35 AM 22.8 °F - 20.5 °F 91% 30.32 in 7.0 mi Calm Calm - N/A   Clear
1:55 AM 22.8 °F 18.2 °F 20.8 °F 92% 30.32 in 7.0 mi NW 3.5 mph - N/A   Clear
2:15 AM 22.5 °F - 20.3 °F 91% 30.32 in 7.0 mi Calm Calm - N/A   Clear
2:35 AM 23.0 °F - 21.0 °F 92% 30.32 in 7.0 mi Calm Calm - N/A   Clear
2:55 AM 18.1 °F - 15.8 °F 91% 30.33 in 7.0 mi Calm Calm - N/A   Clear
3:15 AM 17.1 °F - 15.1 °F 92% 30.33 in 7.0 mi Calm Calm - N/A   Clear
3:35 AM 17.6 °F - 16.2 °F 94% 30.32 in 7.0 mi Calm Calm - N/A   Clear
3:55 AM 18.9 °F - 17.4 °F 94% 30.32 in 7.0 mi Calm Calm - N/A   Clear
4:15 AM 19.0 °F 13.9 °F 17.2 °F 93% 30.32 in 7.0 mi WSW 3.5 mph - N/A   Clear
4:35 AM 18.0 °F - 15.6 °F 91% 30.33 in 7.0 mi Calm Calm - N/A   Clear
4:55 AM 16.2 °F - 14.4 °F 93% 30.33 in 7.0 mi Calm Calm - N/A   Clear
5:15 AM 16.9 °F - 15.3 °F 93% 30.34 in 7.0 mi Calm Calm - N/A   Clear
5:35 AM 16.9 °F - 15.3 °F 93% 30.34 in 7.0 mi Calm Calm - N/A   Clear
5:55 AM 16.9 °F - 15.3 °F 93% 30.34 in 7.0 mi Calm Calm - N/A   Clear
6:15 AM 16.7 °F - 14.9 °F 93% 30.34 in 7.0 mi Calm Calm - N/A   Clear
6:35 AM 16.2 °F - 14.2 °F 92% 30.33 in 7.0 mi Calm Calm - N/A   Clear
6:55 AM 13.3 °F - 10.9 °F 90% 30.34 in 7.0 mi Calm Calm - N/A   Clear
7:15 AM 14.7 °F - 12.4 °F 90% 30.34 in 7.0 mi Calm Calm - N/A   Clear
7:35 AM 15.3 °F - 13.1 °F 91% 30.35 in 7.0 mi Calm Calm - N/A   Clear
7:55 AM 14.7 °F - 12.2 °F 90% 30.35 in 7.0 mi Calm Calm - N/A   Clear
8:15 AM 16.3 °F - 14.4 °F 92% 30.36 in 7.0 mi Calm Calm - N/A   Clear
8:35 AM 18.7 °F - 16.5 °F 91% 30.36 in 7.0 mi Calm Calm - N/A   Clear
8:55 AM 20.1 °F - 17.8 °F 91% 30.36 in 7.0 mi Calm Calm - N/A   Clear
9:15 AM 22.5 °F - 19.8 °F 89% 30.35 in 7.0 mi Calm Calm - N/A   Clear
9:35 AM 25.7 °F - 22.8 °F 89% 30.35 in 7.0 mi Calm Calm - N/A   Clear
9:55 AM 28.4 °F - 25.0 °F 87% 30.35 in 7.0 mi Calm Calm - N/A   Clear
10:15 AM 31.8 °F - 27.1 °F 83% 30.35 in 10.0 mi Calm Calm - N/A   Clear
10:35 AM 37.2 °F 31.2 °F 30.2 °F 76% 30.35 in 10.0 mi SE 8.1 mph - N/A   Clear
10:55 AM 40.1 °F 34.7 °F 30.4 °F 68% 30.34 in 10.0 mi SSE 8.1 mph - N/A   Clear
11:15 AM 42.6 °F 37.2 °F 31.1 °F 64% 30.33 in 10.0 mi SSE 9.2 mph - N/A   Clear
11:35 AM 45.5 °F 40.3 °F 30.9 °F 57% 30.32 in 10.0 mi SSE 10.4 mph - N/A   Clear
11:55 AM 46.4 °F 41.9 °F 30.4 °F 54% 30.29 in 10.0 mi SSE 9.2 mph - N/A   Clear
12:35 PM 49.6 °F - 31.3 °F 49% 30.27 in 10.0 mi SSE 9.2 mph - N/A   Clear
12:55 PM 51.6 °F - 30.6 °F 45% 30.25 in 10.0 mi SSE 10.4 mph - N/A   Clear
1:15 PM 52.2 °F - 30.2 °F 43% 30.24 in 10.0 mi SSE 9.2 mph - N/A   Clear
1:35 PM 53.8 °F - 28.9 °F 39% 30.23 in 7.0 mi South 10.4 mph 17.3 mph N/A   Clear
1:55 PM 54.5 °F - 28.0 °F 36% 30.21 in 10.0 mi South 13.8 mph 18.4 mph N/A   Clear
2:15 PM 54.9 °F - 27.5 °F 35% 30.20 in 10.0 mi South 12.7 mph - N/A   Clear
2:35 PM 54.7 °F - 27.3 °F 35% 30.19 in 10.0 mi South 11.5 mph 17.3 mph N/A   Clear
2:55 PM 54.7 °F - 27.7 °F 35% 30.18 in 10.0 mi South 11.5 mph - N/A   Clear
3:15 PM 53.1 °F - 28.2 °F 38% 30.17 in 10.0 mi South 11.5 mph - N/A   Clear
3:35 PM 52.7 °F - 28.4 °F 39% 30.16 in 7.0 mi South 6.9 mph - N/A   Clear
3:55 PM 52.3 °F - 28.9 °F 41% 30.16 in 7.0 mi South 8.1 mph - N/A   Clear
4:15 PM 51.8 °F - 29.3 °F 42% 30.15 in 5.0 mi South 6.9 mph - N/A   Haze
4:35 PM 50.4 °F - 29.3 °F 44% 30.15 in 10.0 mi South 4.6 mph - N/A   Clear
4:55 PM 48.2 °F - 28.9 °F 47% 30.15 in 10.0 mi South 4.6 mph - N/A   Clear
5:15 PM 46.4 °F 44.3 °F 29.1 °F 51% 30.15 in 10.0 mi South 4.6 mph - N/A   Clear
5:35 PM 45.0 °F 42.6 °F 29.1 °F 54% 30.15 in 10.0 mi SSW 4.6 mph - N/A   Clear
5:55 PM 42.8 °F 40.1 °F 28.4 °F 57% 30.15 in 10.0 mi South 4.6 mph - N/A   Clear
6:15 PM 40.1 °F 36.9 °F 28.0 °F 62% 30.14 in 10.0 mi South 4.6 mph - N/A   Clear
6:35 PM 39.6 °F 34.7 °F 28.0 °F 63% 30.14 in 10.0 mi South 6.9 mph - N/A   Clear
6:55 PM 40.1 °F 35.3 °F 28.4 °F 63% 30.13 in 10.0 mi South 6.9 mph - N/A   Clear
7:15 PM 40.8 °F 36.2 °F 29.3 °F 64% 30.13 in 10.0 mi South 6.9 mph - N/A   Clear
7:35 PM 41.4 °F 35.7 °F 29.8 °F 64% 30.13 in 10.0 mi South 9.2 mph - N/A   Clear
7:55 PM 41.0 °F 36.4 °F 29.7 °F 64% 30.13 in 10.0 mi South 6.9 mph - N/A   Clear
8:15 PM 41.2 °F 35.5 °F 30.2 °F 65% 30.12 in 10.0 mi South 9.2 mph - N/A   Clear
8:35 PM 42.8 °F 37.5 °F 30.7 °F 62% 30.12 in 10.0 mi South 9.2 mph - N/A   Clear
8:55 PM 42.1 °F 36.6 °F 30.6 °F 64% 30.12 in 10.0 mi South 9.2 mph - N/A   Clear
9:15 PM 41.5 °F 36.4 °F 30.7 °F 65% 30.11 in 10.0 mi South 8.1 mph - N/A   Clear
9:35 PM 41.4 °F 35.7 °F 30.9 °F 66% 30.10 in 10.0 mi South 9.2 mph - N/A   Clear
9:55 PM 42.6 °F 37.2 °F 31.1 °F 64% 30.10 in 10.0 mi South 9.2 mph - N/A   Clear
10:15 PM 41.7 °F 36.7 °F 31.1 °F 66% 30.09 in 10.0 mi South 8.1 mph - N/A   Clear
10:35 PM 41.2 °F 36.0 °F 31.1 °F 67% 30.09 in 10.0 mi South 8.1 mph - N/A   Clear
10:55 PM 39.7 °F 36.5 °F 30.7 °F 70% 30.09 in 10.0 mi South 4.6 mph - N/A   Clear
11:15 PM 38.7 °F 36.3 °F 30.6 °F 73% 30.09 in 10.0 mi SSW 3.5 mph - N/A   Clear
11:35 PM 37.0 °F - 30.2 °F 76% 30.09 in 10.0 mi Calm Calm - N/A   Clear
11:55 PM 36.3 °F 33.7 °F 29.7 °F 77% 30.09 in 10.0 mi South 3.5 mph - N/A   Clear